| time (UTC) | temp C | wind direction | speed KPH | gust KPH | rain 1hr cm | rain 24hr cm | rain mn cm | humidity % | barometer mb |
| 20260505120801 | 12 | 155 | 1.6 | 4.8 | 0.00 | 0.00 | 0.00 | 65 | 1013.7 |
| 20260505115304 | 12 | 210 | 1.6 | 4.8 | 0.00 | 0.00 | 0.00 | 64 | 1013.6 |
| 20260505113802 | 12 | 224 | 3.2 | 4.8 | 0.00 | 0.00 | 0.00 | 64 | 1013.7 |
| 20260505112304 | 12 | 221 | 0.0 | 3.2 | 0.00 | 0.00 | 0.00 | 64 | 1013.6 |
| 20260505110803 | 12 | 241 | 0.0 | 3.2 | 0.00 | 0.00 | 0.00 | 64 | 1013.5 |
| 20260505100802 | 12 | 149 | 0.0 | 4.8 | 0.00 | 0.00 | 0.00 | 63 | 1013.2 |
| 20260505095304 | 12 | 152 | 1.6 | 3.2 | 0.00 | 0.00 | 0.00 | 63 | 1013.1 |
| 20260505093803 | 12 | 152 | 1.6 | 4.8 | 0.00 | 0.00 | 0.00 | 63 | 1013.2 |
| 20260505092304 | 12 | 152 | 1.6 | 6.4 | 0.00 | 0.00 | 0.00 | 63 | 1012.9 |
| 20260505090802 | 13 | 172 | 1.6 | 6.4 | 0.00 | 0.00 | 0.00 | 62 | 1012.7 |
| 20260505085304 | 13 | 152 | 1.6 | 4.8 | 0.00 | 0.00 | 0.00 | 62 | 1012.7 |
| 20260505083802 | 13 | 175 | 1.6 | 4.8 | 0.00 | 0.00 | 0.00 | 61 | 1012.7 |
| 20260505082304 | 13 | 131 | 1.6 | 4.8 | 0.00 | 0.00 | 0.00 | 61 | 1012.5 |
| 20260505080802 | 13 | 157 | 1.6 | 4.8 | 0.00 | 0.00 | 0.00 | 61 | 1012.5 |
| 20260505075303 | 13 | 152 | 0.0 | 3.2 | 0.00 | 0.00 | 0.00 | 62 | 1012.4 |
| 20260505075150 | 13 | 152 | 1.6 | 4.8 | 0.00 | 0.00 | 0.00 | 61 | 1012.2 |
| 20260505073026 | 13 | 164 | 3.2 | 9.7 | 0.00 | 0.00 | 0.00 | 61 | 1012.0 |
| 20260505070800 | 14 | 110 | 1.6 | 4.8 | 0.00 | 0.00 | 0.00 | 60 | 1011.9 |
| 20260505065259 | 15 | 161 | 3.2 | 4.8 | 0.00 | 0.00 | 0.00 | 59 | 1011.8 |
| 20260505064515 | 15 | 144 | 1.6 | 6.4 | 0.00 | 0.00 | 0.00 | 59 | 1011.5 |
| 20260505062259 | 15 | 142 | 3.2 | 6.4 | 0.00 | 0.00 | 0.00 | 58 | 1011.3 |
| 20260505060758 | 16 | 158 | 3.2 | 9.7 | 0.00 | 0.00 | 0.00 | 56 | 1011.0 |
| 20260505055259 | 17 | 154 | 6.4 | 8.0 | 0.00 | 0.00 | 0.00 | 55 | 1010.9 |
| 20260505053757 | 17 | 169 | 3.2 | 6.4 | 0.00 | 0.00 | 0.00 | 55 | 1010.9 |
| 20260505052257 | 17 | 58 | 0.0 | 3.2 | 0.00 | 0.00 | 0.00 | 56 | 1010.7 |
| 20260505050757 | 17 | 58 | 1.6 | 6.4 | 0.00 | 0.00 | 0.00 | 54 | 1010.7 |
| 20260505040755 | 20 | 154 | 0.0 | 3.2 | 0.00 | 0.00 | 0.00 | 51 | 1010.0 |
| 20260505035255 | 20 | 154 | 1.6 | 4.8 | 0.00 | 0.00 | 0.00 | 49 | 1009.8 |
| 20260505033755 | 21 | 162 | 1.6 | 6.4 | 0.00 | 0.00 | 0.00 | 49 | 1009.6 |
| 20260505032254 | 21 | 155 | 3.2 | 6.4 | 0.00 | 0.00 | 0.00 | 48 | 1009.3 |
| 20260505030754 | 21 | 190 | 0.0 | 4.8 | 0.00 | 0.00 | 0.00 | 49 | 1009.2 |
| 20260505025253 | 22 | 149 | 3.2 | 8.0 | 0.00 | 0.00 | 0.00 | 47 | 1009.0 |
| 20260505023754 | 22 | 216 | 1.6 | 6.4 | 0.00 | 0.00 | 0.00 | 46 | 1008.9 |
| 20260505022254 | 23 | 157 | 0.0 | 8.0 | 0.00 | 0.00 | 0.00 | 46 | 1008.7 |
| 20260505020753 | 23 | 200 | 3.2 | 8.0 | 0.00 | 0.00 | 0.00 | 44 | 1008.7 |
| 20260505015252 | 23 | 279 | 1.6 | 6.4 | 0.00 | 0.00 | 0.00 | 45 | 1008.7 |
| 20260505013752 | 23 | 230 | 4.8 | 8.0 | 0.00 | 0.00 | 0.00 | 45 | 1008.9 |
| 20260505012251 | 23 | 172 | 1.6 | 6.4 | 0.00 | 0.00 | 0.00 | 45 | 1008.9 |
| 20260505010751 | 22 | 159 | 3.2 | 9.7 | 0.00 | 0.00 | 0.00 | 46 | 1009.0 |
| 20260505005251 | 22 | 189 | 3.2 | 9.7 | 0.00 | 0.00 | 0.00 | 46 | 1009.1 |
| 20260505003751 | 22 | 180 | 1.6 | 11.3 | 0.00 | 0.00 | 0.00 | 46 | 1009.2 |
| 20260505003048 | 22 | 154 | 4.8 | 8.0 | 0.00 | 0.00 | 0.00 | 45 | 1009.2 |
| 20260505002848 | 23 | 161 | 4.8 | 9.7 | 0.00 | 0.00 | 0.00 | 45 | 1009.3 |
| 20260504235249 | 22 | 214 | 3.2 | 6.4 | 0.00 | 0.00 | 0.00 | 45 | 1009.4 |
| 20260504234444 | 22 | 197 | 3.2 | 8.0 | 0.00 | 0.00 | 0.00 | 45 | 1009.5 |
| 20260504232249 | 22 | 148 | 3.2 | 9.7 | 0.00 | 0.00 | 0.00 | 43 | 1009.5 |
| 20260504230749 | 23 | 214 | 4.8 | 8.0 | 0.00 | 0.00 | 0.00 | 44 | 1009.7 |
| 20260504225248 | 23 | 220 | 3.2 | 8.0 | 0.00 | 0.00 | 0.00 | 43 | 1009.8 |
| 20260504223748 | 22 | 117 | 3.2 | 8.0 | 0.00 | 0.00 | 0.00 | 43 | 1010.0 |
| 20260504222248 | 22 | 47 | 3.2 | 4.8 | 0.00 | 0.00 | 0.00 | 43 | 1010.2 |
| 20260504220748 | 22 | 276 | 1.6 | 9.7 | 0.00 | 0.00 | 0.00 | 44 | 1010.4 |
| 20260504215247 | 22 | 169 | 3.2 | 6.4 | 0.00 | 0.00 | 0.00 | 45 | 1010.6 |
| 20260504213747 | 21 | 148 | 1.6 | 8.0 | 0.00 | 0.00 | 0.00 | 46 | 1010.7 |
| 20260504212246 | 20 | 69 | 1.6 | 8.0 | 0.00 | 0.00 | 0.00 | 48 | 1010.9 |
| 20260504210747 | 20 | 147 | 3.2 | 4.8 | 0.00 | 0.00 | 0.00 | 49 | 1011.2 |
| 20260504205245 | 19 | 183 | 0.0 | 0.0 | 0.00 | 0.00 | 0.00 | 49 | 1011.6 |
| 20260504203745 | 18 | 120 | 0.0 | 0.0 | 0.00 | 0.00 | 0.00 | 51 | 1011.7 |
| 20260504202245 | 18 | 243 | 0.0 | 3.2 | 0.00 | 0.00 | 0.00 | 50 | 1011.9 |
| 20260504200745 | 18 | 266 | 3.2 | 11.3 | 0.00 | 0.00 | 0.00 | 53 | 1012.0 |
| 20260504195244 | 17 | 257 | 3.2 | 9.7 | 0.00 | 0.00 | 0.00 | 54 | 1012.1 |
| 20260504193744 | 17 | 255 | 4.8 | 14.5 | 0.00 | 0.00 | 0.00 | 54 | 1012.1 |
| 20260504192244 | 16 | 204 | 3.2 | 8.0 | 0.00 | 0.00 | 0.00 | 56 | 1012.2 |
| 20260504190743 | 16 | 85 | 3.2 | 9.7 | 0.00 | 0.00 | 0.00 | 58 | 1012.3 |
| 20260504185243 | 15 | 123 | 1.6 | 9.7 | 0.00 | 0.00 | 0.00 | 58 | 1012.5 |
| 20260504183743 | 15 | 144 | 3.2 | 9.7 | 0.00 | 0.00 | 0.00 | 58 | 1012.6 |
| 20260504182242 | 15 | 151 | 6.4 | 8.0 | 0.00 | 0.00 | 0.00 | 59 | 1012.4 |
| 20260504180743 | 15 | 138 | 3.2 | 6.4 | 0.00 | 0.00 | 0.00 | 59 | 1012.4 |
| 20260504175242 | 14 | 157 | 4.8 | 8.0 | 0.00 | 0.00 | 0.00 | 59 | 1012.5 |
| 20260504173741 | 13 | 258 | 1.6 | 6.4 | 0.00 | 0.00 | 0.00 | 60 | 1012.6 |
| 20260504172241 | 13 | 241 | 1.6 | 8.0 | 0.00 | 0.00 | 0.00 | 60 | 1012.5 |
| 20260504170741 | 13 | 178 | 3.2 | 8.0 | 0.00 | 0.00 | 0.00 | 61 | 1012.4 |
| 20260504150738 | 12 | 164 | 1.6 | 9.7 | 0.00 | 0.00 | 0.00 | 64 | 1011.9 |
| 20260504140731 | 12 | 148 | 3.2 | 4.8 | 0.00 | 0.00 | 0.00 | 65 | 1011.1 |
| 20260504130731 | 12 | 106 | 1.6 | 4.8 | 0.00 | 0.00 | 0.00 | 65 | 1010.3 |